Location: Chervonnoye
(48.6000°N, 34.4000°E)
Time: 08:01:07
(UTC+00:00)

Nadezhda 1 Rocket - Pass Details

Date: 20 April 2021
Orbit: 940 x 1006 km, 83.0° (Epoch: 13 May)

Event Time Altitude Azimuth Distance (km) Brightness Sun altitude
Exits shadow 00:35:57 10° 280° (W) 2,822 6.1 -18.6°
Reaches altitude 10° 00:36:13 10° 283° (WNW) 2,785 6.1 -18.6°
Maximum altitude 00:38:40 12° 305° (NW) 2,622 6.1 -18.3°
Drops below altitude 10° 00:41:06 10° 328° (NNW) 2,783 6.5 -18.0°
Sets 00:45:39 0° 358° (N) 3,727 7.7 -17.4°
